Tracking 20083 objects as of 8-Dec-2019
HD Live streaming from Space Station
objects crossing your sky now

NOAA 16 DEB

Track NOAA 16 DEB now!
10-day predictions


NORAD ID: 42387
Int'l Code: 2000-055SF
Perigee: 830.9 km
Apogee: 859.3 km
Inclination: 98.9 °
Period: 101.7 minutes
Semi major axis: 7216 km
RCS: Unknown
Launch date: September 21, 2000
Source: United States (US)
Launch site: AIR FORCE WESTERN TEST RANGE (AFWTR)

Note: This is SATELLITE DEBRIS
aabbcc
Your satellite tracking list
Your tracking list is empty




NASA's NSSDC Master Catalog

Two Line Element Set (TLE):
1 42387U 00055SF  19341.07030737  .00000579  00000-0  31391-3 0  9990
2 42387  98.8550  62.1466 0019687 288.9543  70.9497 14.16282252196203
Source of the keplerian elements: AFSPC